Hourly Weather Ruch'i

Today, 20 April, Tuesday

Time Temperature Precipitation Wind Pressure Humidity
00:00 -1°C° 0 mm 4 mps 772 mmHg 67%
01:00 -1°C° 0 mm 4 mps 772 mmHg 67%
02:00 -2°C° 0 mm 4 mps 772 mmHg 68%
03:00 -2°C° 0 mm 4 mps 772 mmHg 73%
04:00 -2°C° 0 mm 4 mps 771 mmHg 73%
05:00 -1°C° 0 mm 4 mps 771 mmHg 73%
06:00 -1°C° 0 mm 4 mps 771 mmHg 72%
07:00 +1°C° 0 mm 4 mps 771 mmHg 68%
08:00 +3°C° 0 mm 5 mps 771 mmHg 63%
09:00 +5°C° 0 mm 5 mps 771 mmHg 59%
10:00 +6°C° 0 mm 5 mps 771 mmHg 56%
11:00 +7°C° 0 mm 5 mps 770 mmHg 53%
12:00 +7°C° 0 mm 5 mps 770 mmHg 50%
13:00 +8°C° 0 mm 5 mps 770 mmHg 49%
14:00 +8°C° 0 mm 4 mps 770 mmHg 47%
15:00 +8°C° 0 mm 4 mps 770 mmHg 46%
16:00 +7°C° 0 mm 4 mps 769 mmHg 49%
17:00 +8°C° 0 mm 3 mps 769 mmHg 51%
18:00 +8°C° 0 mm 3 mps 769 mmHg 54%
19:00 +5°C° 0 mm 3 mps 769 mmHg 60%
20:00 +4°C° 0 mm 3 mps 768 mmHg 66%
21:00 +2°C° 0 mm 3 mps 768 mmHg 73%
22:00 +2°C° 0 mm 3 mps 768 mmHg 75%
23:00 +2°C° 0 mm 3 mps 768 mmHg 77%

Tomorrow, 21 April, Wednesday

Time Temperature Precipitation Wind Pressure Humidity
00:00 +1°C° 0 mm 3 mps 767 mmHg 78%
01:00 +1°C° 0 mm 3 mps 767 mmHg 80%
02:00 -1°C° 0 mm 4 mps 767 mmHg 81%
03:00 -1°C° 0 mm 4 mps 767 mmHg 82%
04:00 -1°C° 0 mm 4 mps 766 mmHg 79%
05:00 0°C° 0 mm 4 mps 766 mmHg 76%
06:00 0°C° 0 mm 4 mps 766 mmHg 74%
07:00 +3°C° 0 mm 4 mps 765 mmHg 67%
08:00 +4°C° 0 mm 4 mps 765 mmHg 61%
09:00 +6°C° 0 mm 4 mps 765 mmHg 54%
10:00 +7°C° 0 mm 4 mps 764 mmHg 50%
11:00 +7°C° 0 mm 4 mps 764 mmHg 45%
12:00 +8°C° 0 mm 5 mps 763 mmHg 41%
13:00 +8°C° 0 mm 4 mps 762 mmHg 41%
14:00 +8°C° 0 mm 4 mps 762 mmHg 41%
15:00 +10°C° 0 mm 4 mps 761 mmHg 41%
16:00 +8°C° 0 mm 4 mps 761 mmHg 42%
17:00 +8°C° 0 mm 4 mps 760 mmHg 43%
18:00 +8°C° 0 mm 4 mps 759 mmHg 44%
19:00 +8°C° 0 mm 4 mps 759 mmHg 46%
20:00 +7°C° 0 mm 4 mps 758 mmHg 49%
21:00 +7°C° 0 mm 4 mps 757 mmHg 51%
22:00 +5°C° 0.3 mm 4 mps 757 mmHg 65%
23:00 +4°C° 0.3 mm 4 mps 756 mmHg 78%

Day after tomorrow, 22 April, Thursday

Time Temperature Precipitation Wind Pressure Humidity
00:00 +3°C° 0.3 mm 4 mps 755 mmHg 92%
01:00 +3°C° 0.6 mm 4 mps 755 mmHg 93%
02:00 +3°C° 0.6 mm 4 mps 755 mmHg 94%
03:00 +1°C° 0.6 mm 4 mps 754 mmHg 96%
04:00 +1°C° 0.2 mm 4 mps 754 mmHg 96%
05:00 +1°C° 0.2 mm 4 mps 753 mmHg 96%
06:00 +2°C° 0.2 mm 3 mps 753 mmHg 96%
07:00 +1°C° 0.4 mm 4 mps 752 mmHg 96%
08:00 +1°C° 0.4 mm 4 mps 752 mmHg 96%
09:00 +1°C° 0.4 mm 4 mps 752 mmHg 96%
10:00 +1°C° 0.3 mm 4 mps 752 mmHg 96%
11:00 +1°C° 0.3 mm 4 mps 752 mmHg 96%
12:00 +1°C° 0.3 mm 4 mps 751 mmHg 96%
13:00 +1°C° 0.2 mm 4 mps 751 mmHg 96%
14:00 +1°C° 0.2 mm 4 mps 751 mmHg 95%
15:00 +1°C° 0.2 mm 4 mps 751 mmHg 95%
16:00 +1°C° 0.3 mm 4 mps 752 mmHg 96%
17:00 +1°C° 0.3 mm 4 mps 752 mmHg 96%
18:00 +1°C° 0.3 mm 4 mps 752 mmHg 96%
19:00 +1°C° 0.2 mm 4 mps 752 mmHg 96%
20:00 0°C° 0.2 mm 5 mps 753 mmHg 96%
21:00 0°C° 0.2 mm 5 mps 753 mmHg 96%
22:00 0°C° 0.2 mm 5 mps 754 mmHg 96%
23:00 -1°C° 0.2 mm 6 mps 754 mmHg 95%

23 April, Friday

Time Temperature Precipitation Wind Pressure Humidity
00:00 -1°C° 0.2 mm 6 mps 754 mmHg 95%
01:00 -2°C° 0.2 mm 6 mps 755 mmHg 95%
02:00 -2°C° 0.2 mm 6 mps 755 mmHg 96%
03:00 -2°C° 0.2 mm 6 mps 756 mmHg 96%
04:00 -1°C° 0.1 mm 5 mps 757 mmHg 96%
05:00 -1°C° 0.1 mm 5 mps 757 mmHg 96%
06:00 -1°C° 0.1 mm 5 mps 758 mmHg 96%
07:00 0°C° 0 mm 4 mps 758 mmHg 92%
08:00 0°C° 0 mm 4 mps 759 mmHg 89%
09:00 0°C° 0 mm 4 mps 760 mmHg 85%
10:00 +2°C° 0 mm 3 mps 760 mmHg 81%
11:00 +3°C° 0 mm 3 mps 761 mmHg 77%
12:00 +4°C° 0 mm 2 mps 762 mmHg 73%
13:00 +5°C° 0 mm 2 mps 762 mmHg 70%
14:00 +7°C° 0 mm 1 mps 763 mmHg 66%
15:00 +7°C° 0 mm 1 mps 763 mmHg 63%
16:00 +7°C° 0 mm 1 mps 763 mmHg 63%
17:00 +6°C° 0 mm 2 mps 764 mmHg 63%
18:00 +5°C° 0 mm 3 mps 764 mmHg 63%
19:00 +5°C° 0 mm 4 mps 764 mmHg 67%
20:00 +3°C° 0 mm 5 mps 764 mmHg 71%
21:00 +2°C° 0 mm 6 mps 764 mmHg 75%
22:00 +2°C° 0 mm 6 mps 764 mmHg 76%
23:00 +2°C° 0 mm 6 mps 764 mmHg 77%

24 April, Saturday

Time Temperature Precipitation Wind Pressure Humidity
00:00 +2°C° 0 mm 6 mps 764 mmHg 78%
01:00 +2°C° 0 mm 6 mps 764 mmHg 80%
02:00 +2°C° 0 mm 6 mps 763 mmHg 83%
03:00 +2°C° 0 mm 6 mps 763 mmHg 86%
04:00 +2°C° 0 mm 6 mps 763 mmHg 86%
05:00 +3°C° 0 mm 6 mps 763 mmHg 87%
06:00 +3°C° 0 mm 5 mps 762 mmHg 88%
07:00 +6°C° 0 mm 5 mps 762 mmHg 80%
08:00 +8°C° 0 mm 5 mps 762 mmHg 72%
09:00 +10°C° 0 mm 5 mps 762 mmHg 64%
10:00 +12°C° 0 mm 5 mps 762 mmHg 59%
11:00 +13°C° 0 mm 6 mps 762 mmHg 54%
12:00 +15°C° 0 mm 6 mps 762 mmHg 49%
13:00 +15°C° 0 mm 5 mps 762 mmHg 46%
14:00 +15°C° 0 mm 5 mps 761 mmHg 44%
15:00 +16°C° 0 mm 5 mps 761 mmHg 42%
16:00 +15°C° 0 mm 5 mps 761 mmHg 42%
17:00 +15°C° 0 mm 5 mps 761 mmHg 43%
18:00 +15°C° 0 mm 5 mps 761 mmHg 44%
19:00 +13°C° 0 mm 5 mps 762 mmHg 48%
20:00 +12°C° 0 mm 5 mps 762 mmHg 52%
21:00 +10°C° 0 mm 5 mps 762 mmHg 55%
22:00 +9°C° 0 mm 5 mps 762 mmHg 58%
23:00 +8°C° 0 mm 5 mps 762 mmHg 61%

25 April, Sunday

Time Temperature Precipitation Wind Pressure Humidity
00:00 +8°C° 0 mm 5 mps 762 mmHg 64%
01:00 +7°C° 0 mm 5 mps 762 mmHg 67%
02:00 +7°C° 0 mm 5 mps 762 mmHg 70%
03:00 +6°C° 0 mm 5 mps 762 mmHg 72%
04:00 +6°C° 0 mm 5 mps 763 mmHg 72%
05:00 +6°C° 0 mm 5 mps 763 mmHg 71%
06:00 +6°C° 0 mm 5 mps 763 mmHg 71%
07:00 +7°C° 0 mm 5 mps 763 mmHg 65%
08:00 +8°C° 0 mm 5 mps 763 mmHg 58%
09:00 +9°C° 0 mm 5 mps 763 mmHg 52%
10:00 +10°C° 0 mm 5 mps 763 mmHg 50%
11:00 +10°C° 0 mm 5 mps 763 mmHg 47%
12:00 +11°C° 0 mm 4 mps 763 mmHg 44%
13:00 +11°C° 0 mm 4 mps 763 mmHg 46%
14:00 +11°C° 0 mm 4 mps 763 mmHg 48%
15:00 +11°C° 0 mm 4 mps 763 mmHg 49%
16:00 +11°C° 0 mm 4 mps 763 mmHg 50%
17:00 +10°C° 0 mm 4 mps 762 mmHg 52%
18:00 +10°C° 0 mm 4 mps 762 mmHg 53%
19:00 +9°C° 0 mm 3 mps 762 mmHg 57%
20:00 +8°C° 0 mm 3 mps 762 mmHg 61%
21:00 +8°C° 0 mm 3 mps 762 mmHg 65%
22:00 +7°C° 0 mm 3 mps 762 mmHg 69%
23:00 +7°C° 0 mm 3 mps 762 mmHg 73%
Show more